Regional Weather Roundup
Issued by NWS Cleveland, OH

Home | Current Version | Previous Version | Text Only | Print | Product List | Glossary Off
Versions: 1 2 3 4 5 6 7 8 9 10 11 12 13 14 15 16 17 18 19 20 21 22 23 24 25 26 27 28 29 30 31 32 33 34 35 36 37 38 39 40 41 42 43 44 45 46 47 48 49 50

000
ASUS41 KCLE 240410
RWRCLE
OHIO REGIONAL WEATHER ROUNDUP
NATIONAL WEATHER SERVICE CLEVELAND, OH
1200 AM EDT SUN MAY 24 2015

NOTE: "FAIR" INDICATES FEW OR NO CLOUDS BELOW 12,000 FEET WITH NO
SIGNIFICANT WEATHER AND/OR OBSTRUCTIONS TO VISIBILITY.

OHZ001>008-015>018-024>027-034-035-043-044-240500-
   NORTHWEST OHIO

CITY           SKY/WX    TMP DP  RH WIND       PRES   REMARKS
DEFIANCE       CLEAR     59  51  75 CALM      30.26S
FINDLAY        CLEAR     63  46  54 S6        30.27S
TOLEDO EXPRESS CLEAR     59  42  53 CALM      30.27S
TOLEDO EXEC    PTCLDY    58  42  55 SE3       30.28S
LIMA           CLEAR     61  46  57 S6        30.28S
$$

OHZ009>014-019>023-028>033-038-089-240500-
   NORTHEAST OHIO

CITY           SKY/WX    TMP DP  RH WIND       PRES   REMARKS
CLE-HOPKINS    CLEAR     55  41  59 S5        30.32S
CLE-LAKEFRONT  CLEAR     63  39  41 SE7       30.29S
CUY CO. ARPT   NOT AVBL
LORAIN-ELYRIA  CLEAR     56  39  53 CALM      30.30F
ASHTABULA      CLEAR     48  41  76 CALM      30.33S
AKRON-CANTON   CLEAR     59  39  47 S6        30.32F
WOOSTER        CLEAR     57  40  52 CALM      30.32F
MANSFIELD      CLEAR     59  41  51 S7        30.31F
YOUNGSTOWN     PTCLDY    47  40  76 S5        30.33S
$$

OHZ042-051>053-060>062-070>072-077>081-240500-
  SOUTHWEST OHIO

CITY           SKY/WX    TMP DP  RH WIND       PRES   REMARKS
CINC-COVINGTON PTCLDY    64  47  53 SE5       30.28F
CINC-LUNKEN    PTCLDY    56  50  80 CALM      30.29S
HAMILTON       PTCLDY    56  49  77 CALM      30.29S
DAYTON         PTCLDY    63  46  54 SE8       30.30S
WRIGHT-PAT AFB PTCLDY    59  48  66 E2        30.29S
DAYTON GENERAL PTCLDY    63  44  50 SE3       30.29S
WILMINGTON     CLEAR     61  44  53 S3        30.31S
$$

OHZ036-037-039>041-045>050-054>059-063>069-073>076-082>088-240500-
  CENTRAL AND SOUTHEAST OHIO

CITY           SKY/WX    TMP DP  RH WIND       PRES   REMARKS
COLUMBUS       PTCLDY    62  42  47 SE5       30.30F
OSU AIRPORT    CLEAR     64  42  44 SE6       30.30F
BOLTON FIELD   NOT AVBL
RICKENBACK AFB CLEAR     59  45  60 CALM      30.30S
NEWARK         CLEAR     52  47  83 CALM      30.31F
MARION         CLEAR     60  42  51 S8        30.30F
LANCASTER      CLEAR     55  47  74 CALM      30.32S
ZANESVILLE     CLEAR     54  45  71 CALM      30.32F
NEW PHILLY     CLEAR     53  45  74 CALM      30.33F
$$



USA.gov is the U.S. government's official web portal to all federal, state and local government web resources and services.